GW0285 Weather Reports


time (UTC)temp
C
wind
direction
speed
KPH
gust
KPH
rain 1hr
cm
rain 24hr
cm
rain mn
cm
humidity
%
barometer
mb
20260502123603 19 113 0.0 8.0 0.00 0.00 0.00 62 1015.7
20260502122703 18 163 0.0 8.0 0.00 0.00 0.00 60 1015.7
20260502121803 18 34 0.0 1.6 0.00 0.00 0.00 62 1015.7
20260502120903 18 36 0.0 8.0 0.00 0.00 0.00 62 1016.0
20260502115403 17 0 0.0 0.0 0.00 0.00 0.00 60 1016.1
20260502114503 18 115 0.0 14.5 0.00 0.00 0.00 61 1016.1
20260502113624 19 67 0.0 4.8 0.00 0.00 0.00 59 1016.1
20260502112703 18 0 0.0 0.0 0.00 0.00 0.00 63 1016.2
20260502111803 19 87 0.0 8.0 0.00 0.00 0.00 63 1016.2
20260502110903 18 0 0.0 0.0 0.00 0.00 0.00 60 1016.6
20260502110024 18 0 0.0 0.0 0.00 0.00 0.00 61 1016.8
20260502105424 17 0 0.0 0.0 0.00 0.00 0.00 63 1016.8
20260502104503 17 105 0.0 3.2 0.00 0.00 0.00 64 1016.9
20260502103603 17 105 0.0 3.2 0.00 0.00 0.00 62 1016.9
20260502102703 17 0 0.0 0.0 0.00 0.00 0.00 63 1017.2
20260502101803 16 0 0.0 0.0 0.00 0.00 0.00 69 1017.3
20260502100903 16 0 0.0 0.0 0.00 0.00 0.00 68 1017.4
20260502090924 13 0 0.0 0.0 0.00 0.00 0.00 80 1017.8
20260502070903 10 0 0.0 0.0 0.00 0.00 0.00 97 1018.5
20260502070003 10 0 0.0 0.0 0.00 0.00 0.00 97 1018.3
20260502065403 10 0 0.0 0.0 0.00 0.00 0.00 97 1018.4
20260502064503 10 0 0.0 0.0 0.00 0.00 0.00 98 1018.3
20260502063603 10 0 0.0 0.0 0.00 0.00 0.00 98 1018.4
20260502062724 10 0 0.0 0.0 0.00 0.00 0.00 98 1018.6
20260502061803 10 0 0.0 0.0 0.00 0.00 0.00 97 1018.6
20260502060903 10 0 0.0 0.0 0.00 0.00 0.00 97 1018.4
20260502060003 9 0 0.0 0.0 0.00 0.00 0.00 97 1018.4
20260502055403 10 0 0.0 0.0 0.00 0.00 0.00 97 1018.4
20260502054503 9 0 0.0 0.0 0.00 0.00 0.00 97 1018.4
20260502053603 10 0 0.0 0.0 0.00 0.00 0.00 97 1018.3
20260502052703 10 0 0.0 0.0 0.00 0.00 0.00 97 1018.7
20260502051803 10 0 0.0 0.0 0.00 0.00 0.00 97 1018.4
20260502050903 10 0 0.0 0.0 0.00 0.00 0.00 97 1018.4
20260502050003 10 0 0.0 0.0 0.00 0.00 0.00 97 1018.6
20260502045403 10 0 0.0 0.0 0.00 0.00 0.00 97 1018.5
20260502044503 10 0 0.0 0.0 0.00 0.00 0.00 97 1018.6
20260502043624 10 0 0.0 0.0 0.00 0.00 0.00 97 1018.6
20260502042703 10 0 0.0 0.0 0.00 0.00 0.00 97 1018.5
20260502041803 10 0 0.0 0.0 0.00 0.00 0.00 96 1018.5
20260502040904 10 0 0.0 0.0 0.00 0.00 0.00 96 1018.3
20260502040003 10 0 0.0 0.0 0.00 0.00 0.00 96 1018.5
20260502035424 10 0 0.0 0.0 0.00 0.00 0.00 96 1018.4
20260502034503 10 0 0.0 0.0 0.00 0.00 0.00 96 1018.5
20260502033603 10 0 0.0 0.0 0.00 0.00 0.00 96 1018.6
20260502032703 10 0 0.0 0.0 0.00 0.00 0.00 95 1019.0
20260502031803 10 0 0.0 0.0 0.00 0.00 0.00 95 1018.8
20260502030924 10 0 0.0 0.0 0.00 0.00 0.00 95 1019.0
20260502030024 10 0 0.0 0.0 0.00 0.00 0.00 95 1018.7
20260502025403 10 0 0.0 0.0 0.00 0.00 0.00 95 1018.9
20260502024524 10 0 0.0 0.0 0.00 0.00 0.00 95 1019.1
20260502023603 10 0 0.0 0.0 0.00 0.00 0.00 95 1018.9
20260502022703 10 0 0.0 0.0 0.00 0.00 0.00 95 1019.1
20260502014503 10 0 0.0 0.0 0.00 0.00 0.00 94 1019.3
20260502013603 10 0 0.0 0.0 0.00 0.00 0.00 94 1019.3
20260502012703 10 0 0.0 0.0 0.00 0.00 0.00 94 1019.5
20260502011803 10 0 0.0 0.0 0.00 0.00 0.00 94 1019.4
20260502010903 10 0 0.0 0.0 0.00 0.00 0.00 94 1019.8
20260502010003 10 0 0.0 0.0 0.00 0.00 0.00 94 1019.5
20260502005403 11 0 0.0 0.0 0.00 0.00 0.00 94 1019.5
20260502004524 11 0 0.0 0.0 0.00 0.00 0.00 95 1019.7
20260502003603 11 0 0.0 0.0 0.00 0.00 0.00 95 1019.8
20260502002703 11 0 0.0 0.0 0.00 0.00 0.00 95 1019.7
20260502001803 11 0 0.0 0.0 0.00 0.00 0.00 95 1019.9
20260502000903 10 0 0.0 0.0 0.00 0.00 0.00 95 1019.8
20260502000004 10 0 0.0 0.0 0.00 0.00 0.00 95 1020.1
20260501235424 10 0 0.0 0.0 0.00 0.00 0.00 95 1019.9
20260501234503 10 0 0.0 0.0 0.00 0.00 0.00 95 1020.1
20260501233624 10 0 0.0 0.0 0.00 0.00 0.00 95 1020.3
20260501232703 10 0 0.0 0.0 0.00 0.00 0.00 95 1020.2
20260501231803 10 0 0.0 0.0 0.00 0.00 0.00 95 1020.2
20260501230903 10 0 0.0 0.0 0.00 0.00 0.00 95 1020.3
20260501230025 10 0 0.0 0.0 0.00 0.00 0.00 95 1020.3
20260501225403 10 0 0.0 0.0 0.00 0.00 0.00 95 1020.5
20260501224503 10 0 0.0 0.0 0.00 0.00 0.00 95 1020.4
20260501223603 9 0 0.0 0.0 0.00 0.00 0.00 95 1020.1
20260501222703 9 0 0.0 0.0 0.00 0.00 0.00 94 1020.3
20260501221803 10 0 0.0 0.0 0.00 0.00 0.00 94 1020.4
20260501220903 10 0 0.0 0.0 0.00 0.00 0.00 94 1020.5
20260501220024 10 0 0.0 0.0 0.00 0.00 0.00 93 1020.3
20260501215403 10 0 0.0 0.0 0.00 0.00 0.00 93 1020.3
20260501214503 10 0 0.0 0.0 0.00 0.00 0.00 93 1020.3
20260501213624 10 0 0.0 0.0 0.00 0.00 0.00 92 1020.2
20260501212703 10 0 0.0 0.0 0.00 0.00 0.00 92 1020.2
20260501211803 10 0 0.0 0.0 0.00 0.00 0.00 92 1020.5
20260501210903 10 0 0.0 0.0 0.00 0.00 0.00 91 1020.5
20260501210003 11 0 0.0 0.0 0.00 0.00 0.00 90 1020.4
20260501205403 11 0 0.0 0.0 0.00 0.00 0.00 90 1020.3
20260501204503 11 0 0.0 0.0 0.00 0.00 0.00 89 1020.2
20260501203624 11 0 0.0 0.0 0.00 0.00 0.00 88 1020.1
20260501202724 11 0 0.0 0.0 0.00 0.00 0.00 87 1020.1
20260501201803 11 0 0.0 0.0 0.00 0.00 0.00 85 1020.2
20260501200903 12 0 0.0 0.0 0.00 0.00 0.00 84 1020.1
20260501200003 12 0 0.0 0.0 0.00 0.00 0.00 83 1020.0
20260501195424 12 0 0.0 0.0 0.00 0.00 0.00 82 1020.0
20260501194503 12 0 0.0 0.0 0.00 0.00 0.00 80 1019.8
20260501193603 12 0 0.0 0.0 0.00 0.00 0.00 78 1019.9
20260501192703 12 0 0.0 0.0 0.00 0.00 0.00 77 1020.1
20260501191803 13 0 0.0 0.0 0.00 0.00 0.00 75 1019.8
20260501190903 13 0 0.0 0.0 0.00 0.00 0.00 74 1019.7
20260501190003 13 0 0.0 0.0 0.00 0.00 0.00 72 1019.8
20260501185403 13 0 0.0 0.0 0.00 0.00 0.00 72 1019.8
20260501184504 14 0 0.0 0.0 0.00 0.00 0.00 72 1020.0
20260501183624 15 0 0.0 0.0 0.00 0.00 0.00 72 1019.9
20260501182703 16 0 0.0 0.0 0.00 0.00 0.00 70 1020.0
20260501181803 17 0 0.0 0.0 0.00 0.00 0.00 64 1019.9
20260501180903 18 0 0.0 0.0 0.00 0.00 0.00 64 1019.8
20260501180003 18 0 0.0 0.0 0.00 0.00 0.00 62 1020.0
20260501175424 18 201 0.0 3.2 0.00 0.00 0.00 62 1019.9
20260501174503 18 0 0.0 0.0 0.00 0.00 0.00 64 1019.9
20260501173603 18 0 0.0 0.0 0.00 0.00 0.00 64 1019.8
20260501172703 19 301 0.0 11.3 0.00 0.00 0.00 64 1019.9
20260501171803 19 0 0.0 0.0 0.00 0.00 0.00 65 1019.9
20260501170903 20 277 0.0 4.8 0.00 0.00 0.00 64 1019.9
20260501170004 19 0 0.0 0.0 0.00 0.00 0.00 64 1019.8
20260501165403 18 282 0.0 8.0 0.00 0.00 0.00 65 1019.9
20260501164524 18 317 0.0 4.8 0.00 0.00 0.00 65 1020.3
20260501163603 18 0 0.0 0.0 0.00 0.00 0.00 65 1020.2
20260501161803 18 273 0.0 3.2 0.00 0.00 0.00 66 1020.5
20260501160903 18 290 1.6 27.4 0.00 0.00 0.00 68 1020.6
20260501160004 18 286 0.0 8.0 0.00 0.00 0.00 66 1020.8
20260501155403 18 316 0.0 3.2 0.00 0.00 0.00 68 1021.0
20260501154503 18 319 0.0 4.8 0.00 0.00 0.00 70 1021.0
20260501153624 18 298 0.0 8.0 0.00 0.00 0.00 69 1021.0
20260501152724 18 290 1.6 22.5 0.00 0.00 0.00 69 1021.2
20260501151803 18 288 0.0 11.3 0.00 0.00 0.00 69 1021.2
20260501150924 18 300 0.0 3.2 0.00 0.00 0.00 67 1021.3
20260501145424 18 317 0.0 11.3 0.00 0.00 0.00 68 1021.0
20260501144503 17 303 0.0 1.6 0.00 0.00 0.00 69 1021.1
20260501143603 18 306 0.0 11.3 0.00 0.00 0.00 70 1021.2
20260501142703 18 290 0.0 16.1 0.00 0.00 0.00 70 1021.1
20260501141803 19 0 0.0 0.0 0.00 0.00 0.00 69 1021.1
20260501140903 20 292 0.0 4.8 0.00 0.00 0.00 68 1020.8
20260501140003 20 0 0.0 0.0 0.00 0.00 0.00 68 1021.2
20260501135403 20 0 0.0 0.0 0.00 0.00 0.00 67 1021.0
20260501134503 20 278 0.0 3.2 0.00 0.00 0.00 65 1020.9
20260501133603 21 0 0.0 0.0 0.00 0.00 0.00 61 1020.8
20260501132703 20 0 0.0 0.0 0.00 0.00 0.00 61 1020.8